Location: Cercedilla
(40.7379°N, 4.0638°W)
Time: 03:35:50
(UTC+00:00)

Cosmos 1455 - Pass Details

Date: 07 June 2020
Orbit: 499 x 522 km, 82.5° (Epoch: 10 July)

Event Time Altitude Azimuth Distance (km) Brightness Sun altitude
Rises 00:55:20 0° 352° (N) 2,600 6.9 -25.8°
Reaches altitude 10° 00:57:27 10° 353° (N) 1,713 5.8 -25.7°
Enters shadow 01:00:09 45° 356° (N) 688 3.1 -25.6°
